This demonstration page uses our WeatherBlox Daily Observations layout. Learn more.

Left ArrowRight Arrow

38.83388, -104.82136

Hourly Observations for July 1, 2022

Temp ( °F °C ) Dew Point ( °F °C ) Humidity (%) Winds ( mph kmh ) Pressure ( in mb ) Visibility ( mi km ) Precip ( " mm )
12:54 am 00:54 Mostly Cloudy 61 16.1 51 10.6 70 70 N 18 30 30.04 1017 10 16 0.01 0.25
1:54 am 01:54 Partly Cloudy 60 15.6 49 9.4 67 67 N 15 24 30.02 1017 10 16 0.00 0.00
2:54 am 02:54 Mostly Clear 59 15 48 8.9 67 67 NNW 9 15 30.03 1017 10 16 0.00 0.00
3:54 am 03:54 Partly Cloudy 59 15 48 8.9 67 67 Calm 30.05 1018 10 16 0.00 0.00
4:54 am 04:54 Partly Cloudy 58 14.4 48 8.9 70 70 W 3 6 30.06 1018 10 16 0.00 0.00
5:54 am 05:54 Mostly Cloudy 56 13.3 49 9.4 77 77 ENE 3 6 30.08 1019 10 16 0.00 0.00
6:54 am 06:54 Mostly Cloudy 58 14.4 49 9.4 72 72 E 6 9 30.08 1019 10 16 0.00 0.00
7:54 am 07:54 Mostly Cloudy 64 17.8 51 10.6 63 63 ENE 5 7 30.06 1018 10 16 0.00 0.00
8:54 am 08:54 Mostly Cloudy 66 18.9 51 10.6 59 59 Calm 30.07 1018 10 16 0.00 0.00
9:54 am 09:54 Mostly Cloudy 70 21.1 51 10.6 51 51 E 6 9 30.05 1018 10 16 0.00 0.00
10:54 am 10:54 Partly Cloudy 73 22.8 52 11.1 48 48 VRB 6 9 30.02 1017 10 16 0.00 0.00
11:54 am 11:54 Partly Cloudy 76 24.4 52 11.1 43 43 S 5 7 30.01 1016 10 16 0.00 0.00
12:54 pm 12:54 Partly Cloudy 77 25 50 10 39 39 SSE 6 9 29.99 1016 10 16 0.00 0.00
1:54 pm 13:54 Mostly Cloudy 76 24.4 51 10.6 42 42 S 5 7 29.99 1016 10 16 0.00 0.00
2:54 pm 14:54 Mostly Cloudy 76 24.4 50 10 40 40 SSW 7 11 29.97 1015 10 16 0.00 0.00
3:18 pm 15:18 Mostly Cloudy with Nearby Thunderstorms 75 24 54 12 47 47 W 8 13 29.75 1007 10 16 0.00 0.00
3:54 pm 15:54 Mostly Cloudy with Nearby Thunderstorms 74 23.3 49 9.4 41 41 N 16 26 30.00 1016 10 16 0.00 0.00
3:59 pm 15:59 Mostly Cloudy with Nearby Thunderstorms 72 22.2 45 7.2 38 38 N 32 52 29.80 1009 10 16 0.00 0.00
4:11 pm 16:11 Cloudy with Nearby Thunderstorms 70 21.1 45 7.2 41 41 N 22 35 29.83 1010 10 16 0.00 0.00
4:54 pm 16:54 Cloudy with Nearby Thunderstorms 65 18.3 52 11.1 63 63 WNW 13 20 30.05 1018 10 16 0.01 0.25
5:10 pm 17:10 Cloudy with Light Rain 64 17.8 52 11.1 65 65 WNW 15 24 29.91 1013 10 16 0.00 0.00
5:29 pm 17:29 Cloudy with Nearby Thunderstorms 64 17.8 51 10.6 63 63 NW 10 17 29.91 1013 10 16 0.00 0.00
5:54 pm 17:54 Mostly Cloudy with Light Rain 61 16.1 54 12.2 78 78 N 7 11 30.07 1018 10 16 0.01 0.25
6:54 pm 18:54 Mostly Cloudy 66 18.9 54 12.2 65 65 SSW 15 24 30.04 1017 10 16 0.02 0.51
7:54 pm 19:54 Partly Cloudy 64 17.8 56 13.3 75 75 SSE 10 17 30.04 1017 10 16 0.00 0.00
8:54 pm 20:54 Mostly Cloudy 61 16.1 56 13.3 84 84 SE 8 13 30.03 1017 10 16 0.00 0.00
9:54 pm 21:54 Mostly Clear 60 15.6 56 13.3 86 86 SE 9 15 30.01 1016 10 16 0.00 0.00
10:54 pm 22:54 Mostly Cloudy 60 15.6 56 13.3 86 86 SSE 6 9 30.00 1016 10 16 0.00 0.00
11:54 pm 23:54 Mostly Cloudy 60 15.6 57 13.9 90 90 Calm 29.97 1015 10 16 0.00 0.00

Powered by AerisWeather